When you browse on this site, cookies collect data to enhance your experience and personalize the content and advertising you see.
Visit our Privacy Policy to learn more. By continuing to use the site, you agree to this use of cookies and data.
  • In Switzerland
  • List of Countries
  • For 7 days
  • Water Temperature
  • Satellite Maps
  • Weather Map
  • Weather Widgets
  • user-avatar
    Login

    Hourly Weather Oranienburg

    Today, 26 May, Sunday

    Time Temperature Precipitation Wind Pressure Humidity
    00:00 +13°C° 0 mm 2 mps 758 mmHg 77%
    01:00 +10°C° 0 mm 2 mps 758 mmHg 82%
    02:00 +10°C° 0 mm 2 mps 758 mmHg 85%
    03:00 +9°C° 0 mm 2 mps 758 mmHg 88%
    04:00 +8°C° 0 mm 2 mps 758 mmHg 91%
    05:00 +9°C° 0 mm 3 mps 757 mmHg 86%
    06:00 +11°C° 0 mm 3 mps 757 mmHg 81%
    07:00 +12°C° 0 mm 4 mps 757 mmHg 75%
    08:00 +14°C° 0 mm 4 mps 756 mmHg 69%
    09:00 +16°C° 0 mm 5 mps 756 mmHg 63%
    10:00 +17°C° 0 mm 6 mps 755 mmHg 58%
    11:00 +19°C° 0 mm 6 mps 755 mmHg 55%
    12:00 +20°C° 0 mm 6 mps 755 mmHg 53%
    13:00 +21°C° 0 mm 7 mps 755 mmHg 50%
    14:00 +21°C° 0 mm 6 mps 754 mmHg 52%
    15:00 +21°C° 0 mm 5 mps 754 mmHg 55%
    16:00 +21°C° 0 mm 5 mps 754 mmHg 58%
    17:00 +20°C° 0 mm 4 mps 753 mmHg 61%
    18:00 +20°C° 0 mm 4 mps 753 mmHg 63%
    19:00 +20°C° 0 mm 3 mps 752 mmHg 66%
    20:00 +19°C° 0 mm 3 mps 752 mmHg 70%
    21:00 +18°C° 0 mm 4 mps 752 mmHg 73%
    22:00 +17°C° 0 mm 4 mps 753 mmHg 76%
    23:00 +17°C° 0 mm 4 mps 752 mmHg 78%

    Tomorrow, 27 May, Monday

    Time Temperature Precipitation Wind Pressure Humidity
    00:00 +17°C° 0 mm 4 mps 752 mmHg 80%
    01:00 +15°C° 0 mm 4 mps 752 mmHg 82%
    02:00 +15°C° 0 mm 4 mps 752 mmHg 83%
    03:00 +14°C° 0 mm 4 mps 751 mmHg 85%
    04:00 +14°C° 0 mm 4 mps 751 mmHg 86%
    05:00 +14°C° 0 mm 4 mps 751 mmHg 84%
    06:00 +15°C° 0 mm 5 mps 751 mmHg 81%
    07:00 +16°C° 0 mm 5 mps 751 mmHg 78%
    08:00 +15°C° 0.1 mm 5 mps 752 mmHg 81%
    09:00 +15°C° 0.1 mm 4 mps 752 mmHg 84%
    10:00 +16°C° 0.1 mm 3 mps 752 mmHg 87%
    11:00 +17°C° 0 mm 4 mps 752 mmHg 81%
    12:00 +18°C° 0 mm 4 mps 752 mmHg 74%
    13:00 +19°C° 0 mm 4 mps 752 mmHg 68%
    14:00 +19°C° 0 mm 4 mps 752 mmHg 64%
    15:00 +20°C° 0 mm 4 mps 752 mmHg 59%
    16:00 +21°C° 0 mm 4 mps 751 mmHg 55%
    17:00 +20°C° 0 mm 3 mps 752 mmHg 60%
    18:00 +19°C° 0 mm 3 mps 752 mmHg 64%
    19:00 +18°C° 0 mm 2 mps 752 mmHg 68%
    20:00 +17°C° 0 mm 2 mps 752 mmHg 72%
    21:00 +16°C° 0 mm 2 mps 752 mmHg 75%
    22:00 +14°C° 0 mm 2 mps 752 mmHg 79%
    23:00 +13°C° 0 mm 2 mps 752 mmHg 81%

    Day after tomorrow, 28 May, Tuesday

    Time Temperature Precipitation Wind Pressure Humidity
    00:00 +13°C° 0 mm 2 mps 752 mmHg 83%
    01:00 +12°C° 0 mm 2 mps 752 mmHg 85%
    02:00 +10°C° 0 mm 2 mps 752 mmHg 86%
    03:00 +10°C° 0 mm 2 mps 752 mmHg 88%
    04:00 +9°C° 0 mm 2 mps 752 mmHg 89%
    05:00 +10°C° 0 mm 2 mps 752 mmHg 83%
    06:00 +12°C° 0 mm 2 mps 752 mmHg 77%
    07:00 +13°C° 0 mm 2 mps 752 mmHg 71%
    08:00 +14°C° 0 mm 2 mps 752 mmHg 66%
    09:00 +15°C° 0 mm 2 mps 752 mmHg 60%
    10:00 +16°C° 0 mm 2 mps 752 mmHg 55%
    11:00 +16°C° 0 mm 2 mps 752 mmHg 53%
    12:00 +17°C° 0 mm 2 mps 752 mmHg 52%
    13:00 +17°C° 0 mm 2 mps 752 mmHg 50%
    14:00 +17°C° 0 mm 2 mps 752 mmHg 52%
    15:00 +17°C° 0 mm 2 mps 752 mmHg 53%
    16:00 +17°C° 0 mm 2 mps 752 mmHg 54%
    17:00 +17°C° 0 mm 2 mps 752 mmHg 59%
    18:00 +16°C° 0 mm 2 mps 753 mmHg 63%
    19:00 +15°C° 0 mm 2 mps 753 mmHg 68%
    20:00 +14°C° 0 mm 2 mps 753 mmHg 71%
    21:00 +13°C° 0 mm 2 mps 753 mmHg 75%
    22:00 +10°C° 0 mm 2 mps 754 mmHg 78%
    23:00 +10°C° 0 mm 2 mps 754 mmHg 78%

    29 May, Wednesday

    Time Temperature Precipitation Wind Pressure Humidity
    00:00 +9°C° 0 mm 2 mps 754 mmHg 79%
    01:00 +8°C° 0 mm 2 mps 755 mmHg 80%
    02:00 +8°C° 0 mm 2 mps 755 mmHg 80%
    03:00 +8°C° 0 mm 2 mps 755 mmHg 80%
    04:00 +8°C° 0 mm 2 mps 756 mmHg 81%
    05:00 +8°C° 0.1 mm 2 mps 756 mmHg 79%
    06:00 +9°C° 0.1 mm 3 mps 757 mmHg 78%
    07:00 +10°C° 0.1 mm 3 mps 758 mmHg 76%
    08:00 +10°C° 0.2 mm 3 mps 758 mmHg 75%
    09:00 +11°C° 0.2 mm 3 mps 758 mmHg 73%
    10:00 +11°C° 0.2 mm 3 mps 759 mmHg 72%
    11:00 +13°C° 0 mm 3 mps 759 mmHg 63%
    12:00 +14°C° 0 mm 3 mps 760 mmHg 54%
    13:00 +17°C° 0 mm 3 mps 760 mmHg 46%
    14:00 +17°C° 0 mm 3 mps 760 mmHg 46%
    15:00 +17°C° 0 mm 3 mps 760 mmHg 45%
    16:00 +17°C° 0 mm 4 mps 760 mmHg 45%
    17:00 +16°C° 0 mm 3 mps 761 mmHg 50%
    18:00 +16°C° 0 mm 3 mps 761 mmHg 55%
    19:00 +14°C° 0 mm 3 mps 761 mmHg 61%
    20:00 +13°C° 0 mm 2 mps 762 mmHg 66%
    21:00 +10°C° 0 mm 2 mps 762 mmHg 71%
    22:00 +10°C° 0 mm 1 mps 763 mmHg 77%
    23:00 +9°C° 0 mm 1 mps 763 mmHg 78%

    30 May, Thursday

    Time Temperature Precipitation Wind Pressure Humidity
    00:00 +8°C° 0 mm 1 mps 763 mmHg 79%
    01:00 +8°C° 0 mm 1 mps 763 mmHg 79%
    02:00 +8°C° 0 mm 1 mps 763 mmHg 79%
    03:00 +8°C° 0 mm 1 mps 763 mmHg 79%
    04:00 +7°C° 0 mm 2 mps 763 mmHg 79%
    05:00 +8°C° 0 mm 2 mps 763 mmHg 74%
    06:00 +10°C° 0 mm 2 mps 764 mmHg 70%
    07:00 +11°C° 0 mm 3 mps 764 mmHg 66%
    08:00 +13°C° 0 mm 3 mps 763 mmHg 60%
    09:00 +16°C° 0 mm 3 mps 763 mmHg 54%
    10:00 +18°C° 0 mm 3 mps 763 mmHg 48%
    11:00 +19°C° 0 mm 4 mps 763 mmHg 47%
    12:00 +20°C° 0 mm 4 mps 762 mmHg 45%
    13:00 +20°C° 0 mm 5 mps 762 mmHg 43%
    14:00 +21°C° 0 mm 5 mps 761 mmHg 45%
    15:00 +21°C° 0 mm 5 mps 761 mmHg 47%
    16:00 +21°C° 0 mm 5 mps 760 mmHg 49%
    17:00 +20°C° 0 mm 4 mps 760 mmHg 53%
    18:00 +19°C° 0 mm 4 mps 759 mmHg 58%
    19:00 +19°C° 0 mm 3 mps 759 mmHg 63%
    20:00 +18°C° 0 mm 3 mps 759 mmHg 68%
    21:00 +17°C° 0 mm 3 mps 759 mmHg 73%
    22:00 +16°C° 0 mm 3 mps 759 mmHg 78%
    23:00 +16°C° 0.8 mm 3 mps 759 mmHg 83%

    31 May, Friday

    Time Temperature Precipitation Wind Pressure Humidity
    00:00 +14°C° 0.8 mm 3 mps 759 mmHg 88%
    01:00 +14°C° 0.8 mm 3 mps 758 mmHg 93%
    02:00 +13°C° 1 mm 4 mps 759 mmHg 93%
    03:00 +13°C° 1 mm 4 mps 759 mmHg 93%
    04:00 +13°C° 1 mm 4 mps 759 mmHg 93%
    05:00 +12°C° 0.2 mm 4 mps 760 mmHg 88%
    06:00 +11°C° 0.2 mm 4 mps 760 mmHg 83%
    07:00 +9°C° 0.2 mm 5 mps 761 mmHg 79%
    08:00 +11°C° 0 mm 4 mps 762 mmHg 70%
    09:00 +12°C° 0 mm 4 mps 762 mmHg 61%
    10:00 +13°C° 0 mm 4 mps 763 mmHg 52%
    11:00 +14°C° 0 mm 5 mps 763 mmHg 49%
    12:00 +15°C° 0 mm 5 mps 763 mmHg 45%
    13:00 +16°C° 0 mm 5 mps 764 mmHg 42%
    14:00 +16°C° 0 mm 5 mps 764 mmHg 46%
    15:00 +15°C° 0 mm 5 mps 764 mmHg 51%
    16:00 +14°C° 0 mm 5 mps 764 mmHg 55%
    17:00 +14°C° 0 mm 5 mps 765 mmHg 57%
    18:00 +13°C° 0 mm 4 mps 765 mmHg 59%
    19:00 +13°C° 0 mm 4 mps 765 mmHg 61%
    20:00 +12°C° 0 mm 4 mps 766 mmHg 63%
    21:00 +11°C° 0 mm 3 mps 767 mmHg 66%
    22:00 +10°C° 0 mm 3 mps 767 mmHg 69%
    23:00 +9°C° 0 mm 3 mps 767 mmHg 73%
    Show more